Weather History for PAOT - October, 2013

Change the Weather History Date:

Sunday, October 27, 2013

  Actual Average Record
Temperature  
Mean Temperature 35 °F 17 °F  
Max Temperature 37 °F 22 °F 39 °F (2013)
Min Temperature 33 °F 13 °F -13 °F (1970)
Degree Days  
Heating Degree Days 30 48  
Month to date heating degree days 796 1068  
Since 1 July heating degree days 2152 2486  
Cooling Degree Days 0    
Month to date cooling degree days 0  
Year to date cooling degree days 13  
Moisture  
Dew Point 33 °F    
Average Humidity 0    
Maximum Humidity 0    
Minimum Humidity 0    
Precipitation  
Precipitation 0.07 in 0.03 in 0.34 in (2008)
Month to date precipitation 1.57 0.92  
Year to date precipitation 10.05 9.38  
Snow  
Snow T in 0.20 in 3.70 in (2008)
Month to date snowfall 0.5 5.1  
Since 1 July snowfall 0.9 5.9  
Since 1 September snowfall 0.9 5.9  
Snow Depth T in    
Sea Level Pressure  
Sea Level Pressure 29.74 in    
Wind  
Wind Speed 0 mph (ESE)    
Max Wind Speed 31 mph    
Max Gust Speed 38 mph    
Visibility 9 miles    
Events Rain , Snow    
T = Trace of Precipitation, MM = Missing Value Source: NWS Daily Summary

Daily Weather History Graph

Daily Weather History Graph

Search for Another Location

Airport or City:

Trip Planner

Search our weather history database for the weather conditions in past years. The results will help you decide how hot, cold, wet, or windy it might be!

Date:

Astronomy

Oct. 27, 2013 Rise Set
Actual Time 10:35 AM AKDT 6:31 PM AKDT
Civil Twilight 9:36 AM AKDT 7:30 PM AKDT
Nautical Twilight 8:33 AM AKDT 8:33 PM AKDT
Astronomical Twilight 7:32 AM AKDT 9:34 PM AKDT
Moon 12:52 AM AKDT (10/27) 5:20 PM AKDT (10/27)
Length of Visible Light 9h 54m
Length of Day
7h 56m
Last Quarter, 42% of the Moon is Illuminated
Oct 27
Last Quarter
Nov 3
New
Nov 9
First Quarter
Nov 17
Full
Nov 25
Last Quarter

Hourly Weather History & Observations

Time (AKDT) Temp. Windchill Dew Point Humidity Pressure Visibility Wind Dir Wind Speed Gust Speed Precip Events Conditions
12:53 AM 34.0 °F 22.4 °F 32.0 °F 92% 30.00 in 10.0 mi East 20.7 mph - N/A   Clear
1:53 AM 35.1 °F 22.7 °F 32.0 °F 89% 29.96 in 10.0 mi East 25.3 mph - N/A   Clear
2:53 AM 35.1 °F 22.7 °F 32.0 °F 89% 29.93 in 10.0 mi East 25.3 mph 32.2 mph N/A   Clear
3:53 AM 35.1 °F 22.7 °F 30.9 °F 85% 29.89 in 10.0 mi East 25.3 mph 35.7 mph N/A   Mostly Cloudy
4:53 AM 35.1 °F 22.0 °F 30.9 °F 85% 29.84 in 10.0 mi East 28.8 mph 36.8 mph N/A   Mostly Cloudy
5:53 AM 35.1 °F 22.7 °F 30.9 °F 85% 29.81 in 10.0 mi East 25.3 mph 34.5 mph N/A   Mostly Cloudy
6:53 AM 36.0 °F 23.9 °F 30.9 °F 82% 29.80 in 10.0 mi East 25.3 mph - N/A   Overcast
7:19 AM 33.8 °F 21.6 °F 30.2 °F 87% 29.78 in 3.0 mi ESE 23.0 mph - 0.00 in Snow Light Snow
7:53 AM 33.1 °F 19.6 °F 32.0 °F 96% 29.77 in 3.0 mi ESE 27.6 mph 33.4 mph 0.03 in Snow Light Snow
8:23 AM 33.8 °F 20.3 °F 32.0 °F 93% 29.75 in 3.0 mi ESE 28.8 mph - 0.00 in Snow Light Snow
8:53 AM 33.1 °F 19.6 °F 32.0 °F 96% 29.74 in 3.0 mi ESE 27.6 mph - 0.02 in Snow Light Snow
9:53 AM 33.1 °F 19.8 °F 32.0 °F 96% 29.72 in 10.0 mi ESE 26.5 mph - 0.02 in   Overcast
10:29 AM 33.8 °F 22.2 °F 33.8 °F 100% 29.72 in 10.0 mi ESE 20.7 mph 32.2 mph N/A   Overcast
10:53 AM 35.1 °F 23.0 °F 33.1 °F 92% 29.72 in 10.0 mi ESE 24.2 mph - 0.00 in Rain Light Rain
11:53 AM 35.1 °F 23.3 °F 33.1 °F 92% 29.70 in 10.0 mi ESE 23.0 mph - 0.00 in   Mostly Cloudy
12:53 PM 35.1 °F 24.1 °F 33.1 °F 92% 29.70 in 10.0 mi ESE 19.6 mph - N/A   Overcast
1:53 PM 36.0 °F 25.6 °F 34.0 °F 93% 29.72 in 10.0 mi ESE 18.4 mph - 0.00 in Rain Light Rain
2:53 PM 37.9 °F 27.9 °F 35.1 °F 89% 29.72 in 10.0 mi SE 19.6 mph - 0.00 in   Overcast
3:53 PM 39.0 °F 28.8 °F 35.1 °F 86% 29.71 in 10.0 mi SE 21.9 mph - N/A   Mostly Cloudy
4:53 PM 37.0 °F 26.4 °F 34.0 °F 89% 29.70 in 10.0 mi SE 20.7 mph - N/A   Overcast
5:53 PM 36.0 °F 27.1 °F 34.0 °F 93% 29.68 in 10.0 mi ESE 13.8 mph - N/A   Scattered Clouds
6:53 PM 35.1 °F 25.9 °F 33.1 °F 92% 29.66 in 10.0 mi ESE 13.8 mph - N/A   Scattered Clouds
7:53 PM 36.0 °F 25.6 °F 33.1 °F 89% 29.65 in 10.0 mi ESE 18.4 mph - N/A   Scattered Clouds
8:53 PM 35.1 °F 24.1 °F 33.1 °F 92% 29.64 in 10.0 mi ESE 19.6 mph - N/A   Clear
9:53 PM 35.1 °F 24.5 °F 33.1 °F 92% 29.62 in 10.0 mi ESE 18.4 mph - N/A   Clear
10:53 PM 35.1 °F 23.8 °F 33.1 °F 92% 29.60 in 10.0 mi ESE 20.7 mph - N/A   Clear
11:53 PM 35.1 °F 25.2 °F 33.1 °F 92% 29.59 in 10.0 mi ESE 16.1 mph - N/A   Clear